カタログに戻る

DROR-1

運用中通信GEO
NORAD 64784·PAYLOAD·🇮🇱 Israel

打ち上げ Jul 13, 2025 から Cape Canaveral Space Force Station

Loading…

TLE

最新Source: Space-Track

元期: Sep 14, 2026, 13:46 UTC

1 64784U 25148A   26257.57423434 -.00000042  00000-0  00000-0 0  9990
2 64784   0.0159 213.0628 0000341 353.7593 349.4134  1.00272215  4193

AllMySatでDROR-1をリアルタイム追跡

Download on the App Store